[[{"header":{"parameterUnit":"m.s-1","parameterCategory":1,"la1":30.2991,"la2":30.254,"lo1":-89.0895,"lo2":-89.0444,"dy":0.0017,"dx":0.0017,"nx":28,"ny":28,"refTime":"2025-03-17T21:00:00:Z","depth":0,"parameterNumber":2,"parameterNumberName":"U-component_of_WINDS"},"data":[0,0,0,0,0,0,0,0,0,0,0,0,0,0,0,0,0,0,0,0,0,0,0,0,0,0,0,0,0,0,0,0,0,0,0,0,0,0,0,0,0,0,0,0,0,0,0,0,0,0,0,0,0,0,0,0,0,0,0.5628,0.5627,0,0.5481,0.5479,0.5478,0.535,0.5349,0.5347,0.5346,0.5192,0.5189,0.5186,0,0,0,0,0,0,0,0,0,0,0,0,0,0.5795,0.5793,0.5628,0.5627,0.5625,0.5481,0.5479,0.5477,0.535,0.5348,0.5347,0.5345,0.5193,0.519,0.5186,0,0,0,0,0,0,0,0,0,0,0,0,0,0.5693,0.5792,0.5629,0.5544,0.5535,0.5482,0.5479,0.5477,0.5351,0.5348,0.5346,0.5344,0.5194,0.519,0.5186,0.5203,0,0,0.5173,0.5171,0,0,0,0,0,0,0,0,0.5699,0.5687,0.5558,0.555,0.554,0.5432,0.5482,0.5385,0.5351,0.5421,0.5346,0.5343,0.5273,0.5262,0.5239,0.5196,0.519,0.5173,0.517,0.5168,0.5167,0,0,0,0,0,0,0,0.5706,0.5692,0.557,0.5557,0.5545,0.5512,0.5495,0.5463,0.5361,0.5414,0.5405,0.5389,0.5268,0.5244,0.5235,0.5187,0.5173,0.5169,0.5167,0.5165,0.5149,0.5151,0,0,0,0,0,0,0.5727,0.5699,0.5575,0.5566,0.5616,0.5511,0.5492,0.5469,0.5361,0.5342,0.5391,0.5384,0.5252,0.524,0.5229,0.5241,0.5169,0.5165,0.5162,0.5147,0.5149,0.5151,0,0,0,0,0,0,0.5731,0.5717,0.5581,0.563,0.561,0.551,0.5485,0.5467,0.5443,0.5343,0.5324,0.5386,0.525,0.5235,0.521,0.5234,0.5163,0.5159,0.5144,0.5147,0.515,0.5267,0,0,0,0,0,0,0.5736,0.5719,0.5726,0.5631,0.5608,0.5566,0.5486,0.5465,0.5436,0.5425,0.5333,0.5316,0.5247,0.5217,0.5206,0.5227,0.5156,0.5142,0.5146,0.5149,0.526,0.5273,0.5284,0,0,0,0,0,0.5743,0.5764,0.5727,0.5713,0.5614,0.5568,0.5554,0.5476,0.5439,0.5444,0.538,0.5319,0.5234,0.5216,0.5202,0.5222,0.514,0.5145,0.5149,0.5255,0.5271,0.5284,0,0,0,0,0,0,0.5864,0.575,0.5708,0.5699,0.5644,0.5546,0.555,0.5495,0.5449,0.544,0.5343,0.5324,0.531,0.5263,0.5246,0.5232,0.5178,0.5181,0.5263,0.5278,0.529,0.53,0.5152,0,0,0,0,0,0.589,0.5863,0.5764,0.5766,0.5741,0.5651,0.5628,0.5572,0.551,0.5486,0.542,0.5362,0.5321,0.5297,0.5255,0.5253,0.523,0.526,0.5272,0.5282,0.5285,0.5279,0.529,0.5167,0.5167,0.5166,0,0,0.5942,0.5877,0.5866,0.5789,0.574,0.5712,0.5632,0.5607,0.5585,0.5482,0.5455,0.5405,0.5333,0.532,0.531,0.5281,0.5314,0.5288,0.5297,0.5294,0.5285,0.5297,0.5307,0.517,0.5169,0.5169,0,0,0.6025,0.5973,0.5969,0.5921,0.5848,0.5787,0.5787,0.5697,0.566,0.5631,0.5553,0.5525,0.5458,0.5409,0.5376,0.544,0.5381,0.5428,0.5491,0.5486,0.5496,0.5504,0.5525,0.5534,0.5431,0.5432,0.5432,0,0.6099,0.6056,0.5973,0.5952,0.592,0.5826,0.582,0.5777,0.5694,0.5673,0.5641,0.5554,0.55,0.5473,0.5488,0.5465,0.5459,0.5438,0.5502,0.5509,0.5515,0.5534,0.5543,0.5438,0.5437,0.5437,0.5436,0,0.6151,0.6122,0.6127,0.6049,0.6017,0.6004,0.5918,0.5895,0.5842,0.5785,0.5756,0.5687,0.5628,0.5618,0.5566,0.5583,0.5567,0.552,0.5463,0.5535,0.5551,0.5557,0.5447,0.5444,0.5443,0.5441,0,0,0.6304,0.6181,0.6184,0.6147,0.6059,0.6034,0.6016,0.596,0.5942,0.5887,0.5868,0.5813,0.5769,0.5731,0.5672,0.5668,0.5721,0.5621,0.5618,0.5641,0.5734,0.5769,0.5779,0.5682,0.5683,0.5684,0.574,0,0.6371,0.6334,0.6258,0.6245,0.6216,0.6126,0.611,0.6053,0.5999,0.5966,0.5905,0.5868,0.5813,0.5789,0.5781,0.5716,0.5738,0.5711,0.5661,0.5661,0.5681,0.5788,0.5825,0.5881,0.5746,0.5747,0.5747,0,0.6443,0.6395,0.6379,0.6292,0.6277,0.6264,0.6205,0.6175,0.6108,0.6069,0.6027,0.5963,0.5937,0.5886,0.5848,0.5831,0.5806,0.5771,0.5771,0.5763,0.5708,0.5781,0.5897,0.5906,0.5757,0.5756,0.5755,0,0.6556,0.6486,0.6467,0.6438,0.6337,0.6329,0.6286,0.6218,0.6188,0.6137,0.6116,0.6062,0.6032,0.5991,0.5913,0.5883,0.5883,0.5826,0.5848,0.585,0.5851,0.5852,0.5964,0.5838,0.5837,0.5837,0.5837,0,0.6637,0.663,0.6516,0.6504,0.6493,0.6406,0.6397,0.6345,0.6285,0.626,0.6179,0.6158,0.6056,0.6022,0.5961,0.5938,0.5925,0.5891,0.5875,0.5898,0.5902,0.5879,0.5873,0.5839,0.5839,0.5839,0.5838,0,0.676,0.6683,0.6656,0.6562,0.6539,0.6535,0.6453,0.6437,0.6379,0.6348,0.6336,0.6243,0.6199,0.6117,0.605,0.6008,0.5997,0.597,0.6021,0.601,0.6036,0.6035,0.6137,0.6145,0.6016,0.6017,0.6018,0,0.6816,0.6809,0.6715,0.6693,0.6653,0.6619,0.6589,0.6502,0.6473,0.6397,0.639,0.6339,0.6294,0.6227,0.6153,0.61,0.607,0.6109,0.6061,0.6084,0.6069,0.607,0.6068,0.612,0.6122,0.6124,0.6125,0,0.6924,0.6886,0.6846,0.6793,0.6759,0.6713,0.6662,0.6649,0.655,0.6521,0.6476,0.6441,0.6372,0.6322,0.6259,0.6213,0.6152,0.6141,0.6143,0.6165,0.6195,0.6178,0.6049,0.6138,0.6137,0.6136,0.6135,0.6135,0.7013,0.7002,0.6934,0.6892,0.6845,0.6799,0.678,0.6719,0.668,0.6618,0.6568,0.6526,0.6458,0.6367,0.6324,0.6289,0.626,0.6264,0.6264,0.6266,0.6275,0.6202,0.6277,0.6276,0.6276,0.6276,0.6275,0,0.7116,0.7067,0.703,0.6962,0.6928,0.6876,0.6816,0.6791,0.6756,0.6698,0.6656,0.6602,0.6553,0.6476,0.642,0.6407,0.6377,0.6395,0.6394,0.6384,0.6304,0.6307,0.6419,0.6419,0.6419,0.6419,0.6419,0.6419,0.7165,0.7143,0.7097,0.7051,0.7001,0.6961,0.6931,0.6888,0.6841,0.6786,0.6746,0.6696,0.6629,0.6568,0.652,0.6498,0.6481,0.6507,0.6477,0.6403,0.639,0.6377,0.6379,0.6505,0.6505,0.6559,0.656,0.656]},{"header":{"parameterUnit":"m.s-1","parameterCategory":1,"la1":30.2991,"la2":30.254,"lo1":-89.0895,"lo2":-89.0444,"dy":0.0017,"dx":0.0017,"nx":28,"ny":28,"refTime":"2025-03-17T21:00:00:Z","depth":0,"parameterNumber":3,"parameterNumberName":"V-component_of_WINDS"},"data":[0,0,0,0,0,0,0,0,0,0,0,0,0,0,0,0,0,0,0,0,0,0,0,0,0,0,0,0,0,0,0,0,0,0,0,0,0,0,0,0,0,0,0,0,0,0,0,0,0,0,0,0,0,0,0,0,0,0,0.8852,0.8853,0,0.8925,0.8926,0.8926,0.8956,0.8956,0.8956,0.8956,0.903,0.9032,0.9034,0,0,0,0,0,0,0,0,0,0,0,0,0,0.8737,0.8739,0.8852,0.8853,0.8854,0.8925,0.8926,0.8927,0.8956,0.8956,0.8956,0.8956,0.9029,0.9031,0.9034,0,0,0,0,0,0,0,0,0,0,0,0,0,0.8796,0.874,0.8852,0.8877,0.888,0.8924,0.8926,0.8927,0.8956,0.8956,0.8956,0.8956,0.9028,0.9031,0.9034,0.9058,0,0,0.9044,0.9045,0,0,0,0,0,0,0,0,0.8793,0.88,0.8873,0.8876,0.8879,0.8931,0.8912,0.8971,0.8957,0.8928,0.8956,0.8956,0.8997,0.9003,0.9017,0.9062,0.9065,0.9044,0.9046,0.9047,0.9048,0,0,0,0,0,0,0,0.8789,0.8798,0.8881,0.8874,0.8878,0.8884,0.8893,0.8923,0.8963,0.893,0.8932,0.8941,0.8999,0.9014,0.9019,0.9066,0.9044,0.9047,0.9049,0.905,0.9132,0.9133,0,0,0,0,0,0,0.8781,0.8794,0.8878,0.8883,0.8835,0.8887,0.8896,0.8915,0.8962,0.8969,0.8941,0.8942,0.9008,0.9015,0.9021,0.9052,0.9047,0.905,0.9052,0.9132,0.9132,0.9133,0,0,0,0,0,0,0.8778,0.8788,0.8876,0.8839,0.8851,0.8889,0.891,0.8916,0.8931,0.897,0.8977,0.8949,0.9008,0.9017,0.9049,0.9055,0.9052,0.9055,0.9132,0.9132,0.9132,0.9113,0,0,0,0,0,0,0.8775,0.8787,0.8797,0.8839,0.8853,0.8902,0.891,0.8918,0.8937,0.8939,0.898,0.8987,0.9009,0.9044,0.9052,0.9059,0.9057,0.9131,0.9132,0.9132,0.9114,0.9113,0.9113,0,0,0,0,0,0.8771,0.8789,0.8797,0.8807,0.8866,0.8902,0.891,0.8936,0.8937,0.8947,0.8972,0.8985,0.9053,0.9047,0.9056,0.9064,0.9131,0.9132,0.9132,0.9114,0.9113,0.9113,0,0,0,0,0,0,0.8747,0.8795,0.8805,0.8838,0.8866,0.8907,0.8921,0.8934,0.8963,0.8963,0.8993,0.9002,0.9031,0.9051,0.9043,0.9089,0.9093,0.9095,0.9076,0.9075,0.9075,0.907,0.906,0,0,0,0,0,0.8746,0.8772,0.8812,0.8837,0.885,0.8883,0.89,0.8917,0.8947,0.8959,0.8986,0.9015,0.9042,0.906,0.9087,0.9116,0.9125,0.9126,0.9126,0.9125,0.9127,0.9143,0.9144,0.9135,0.9135,0.9135,0,0,0.8743,0.8773,0.8787,0.8833,0.8857,0.8882,0.8893,0.892,0.8939,0.8963,0.8995,0.9015,0.9049,0.9079,0.9093,0.9096,0.9131,0.9126,0.9125,0.9128,0.9144,0.9144,0.9145,0.9135,0.9135,0.9135,0,0,0.8752,0.8777,0.88,0.8823,0.8858,0.888,0.8885,0.8924,0.8939,0.8971,0.8989,0.9012,0.9059,0.9081,0.9099,0.9113,0.9126,0.9121,0.9119,0.9134,0.9135,0.9135,0.914,0.9141,0.9123,0.9123,0.9123,0,0.8745,0.8784,0.881,0.8835,0.8854,0.8877,0.89,0.8921,0.8963,0.8976,0.8978,0.9036,0.9061,0.9096,0.9099,0.9113,0.9119,0.9117,0.9133,0.9134,0.9135,0.9139,0.9141,0.9122,0.9122,0.9122,0.9123,0,0.8773,0.8799,0.8814,0.8854,0.8874,0.8898,0.8927,0.8944,0.8959,0.8979,0.901,0.904,0.9073,0.9083,0.9097,0.9119,0.912,0.9127,0.9131,0.9134,0.9139,0.9141,0.9121,0.9121,0.9122,0.9122,0,0,0.8771,0.8823,0.8828,0.8845,0.8885,0.8906,0.893,0.8962,0.8976,0.9004,0.9025,0.9063,0.9069,0.9089,0.9106,0.9119,0.9128,0.9125,0.9126,0.9124,0.9153,0.9147,0.9149,0.9136,0.9136,0.9137,0.915,0,0.8785,0.8829,0.8852,0.8887,0.8911,0.8932,0.8952,0.8978,0.8998,0.9021,0.9042,0.9068,0.9075,0.9087,0.9101,0.9124,0.9134,0.9123,0.9155,0.9156,0.9146,0.9152,0.9147,0.9157,0.9152,0.9152,0.9152,0,0.8807,0.8834,0.8871,0.8906,0.8917,0.8936,0.8966,0.8988,0.9017,0.903,0.9051,0.9068,0.9093,0.9094,0.9129,0.9121,0.9135,0.9148,0.9149,0.9154,0.9155,0.9156,0.9162,0.9163,0.9156,0.9156,0.9155,0,0.8801,0.8847,0.8874,0.8889,0.8931,0.8943,0.8961,0.899,0.9007,0.9034,0.9045,0.9074,0.909,0.9111,0.9134,0.9133,0.9166,0.917,0.9177,0.9177,0.9184,0.9183,0.9192,0.9192,0.9192,0.9192,0.9192,0,0.8815,0.8836,0.8872,0.8889,0.8913,0.8939,0.8962,0.8982,0.9007,0.9027,0.9046,0.9065,0.9095,0.9117,0.9135,0.916,0.9167,0.9178,0.9183,0.9176,0.9175,0.9187,0.9187,0.9193,0.9193,0.9193,0.9193,0,0.8813,0.8838,0.8869,0.8905,0.8915,0.8931,0.8962,0.8979,0.8998,0.9024,0.9031,0.9062,0.9089,0.9114,0.915,0.9162,0.9187,0.9193,0.9177,0.918,0.9186,0.9185,0.9202,0.9206,0.9204,0.9204,0.9204,0,0.882,0.8837,0.8875,0.889,0.8907,0.8931,0.8948,0.8973,0.8991,0.9024,0.9036,0.9064,0.9089,0.913,0.9155,0.9182,0.9189,0.9193,0.9193,0.9186,0.9189,0.9188,0.9189,0.9193,0.9193,0.9193,0.9193,0,0.883,0.8841,0.8865,0.8893,0.8913,0.8937,0.8961,0.8972,0.9001,0.9019,0.9047,0.9065,0.9101,0.9129,0.9158,0.9176,0.9189,0.9192,0.9195,0.9189,0.918,0.9185,0.9176,0.9192,0.9192,0.9192,0.9192,0.9192,0.8833,0.8848,0.8877,0.8903,0.8923,0.8945,0.8962,0.8983,0.9006,0.9037,0.905,0.9078,0.9105,0.9146,0.9163,0.9185,0.9188,0.9192,0.9193,0.9194,0.9193,0.9175,0.919,0.919,0.919,0.919,0.919,0,0.8843,0.8862,0.8886,0.8918,0.8938,0.8948,0.8975,0.8991,0.9015,0.9039,0.9062,0.9092,0.9118,0.9145,0.9172,0.9184,0.919,0.919,0.919,0.9194,0.9189,0.9183,0.9184,0.9184,0.9184,0.9184,0.9184,0.9184,0.8851,0.8878,0.8891,0.8927,0.8946,0.8973,0.8987,0.9007,0.9026,0.906,0.9081,0.9098,0.9123,0.9152,0.9176,0.9183,0.9192,0.919,0.9198,0.9194,0.9194,0.9194,0.9189,0.9192,0.9192,0.9201,0.9201,0.9202]}]]